Location: Kitt Peak
(31.9633°N, 111.6000°W)
Time: 12:50:38
(UTC-07:00)

Amateur Radio Satellites - All Passes

Search period start: 02 December 2016 12:20
Search period end: 03 December 2016 12:20
Location: Kitt Peak, 31.9633°N, 111.6000°W

Satellite Date Start Highest point End Downlink Frequencies (MHz)
Time Altitude Azimuth
DX 1 02 Dec 12:34:20 12:38:36 48° 100° (E) 12:42:49 434.975-435.025
AO-85 02 Dec 12:40:40 12:44:34 82° 62° (ENE) 12:48:26 145.980
Cosmos 2499 02 Dec 12:41:02 12:49:42 80° 84° (E) 12:57:41 435.465 / 435.565
ESTCUBE 1 02 Dec 12:42:13 12:45:54 25° 289° (WNW) 12:49:36 437.505/2401.250
BUGSAT 1 02 Dec 12:48:13 12:51:52 29° 263° (W) 12:55:34 437.445
NANOSAT C BR1 02 Dec 12:48:43 12:49:04 10° 267° (W) 12:49:27 145.865
UKube-1 02 Dec 12:49:48 12:54:03 54° 100° (E) 12:58:16 .
Gurwin Techsat 1B 02 Dec 12:50:39 12:54:55 25° 69° (ENE) 12:59:11 435.225
50 SAT 02 Dec 12:52:15 12:55:39 43° 284° (WNW) 12:59:02 437.505
RS-15 02 Dec 12:59:27 13:00:16 10° 353° (N) 13:01:06 29.354- 29.394
JUGNU 02 Dec 13:00:47 13:05:00 20° 170° (S) 13:09:12 437.505
AISAT 02 Dec 13:06:18 13:10:16 32° 288° (WNW) 13:14:13 437.250
SPROUT 02 Dec 13:11:30 13:15:34 43° 286° (WNW) 13:19:37 437.525
TISAT 1 02 Dec 13:13:08 13:16:33 24° 97° (E) 13:19:56 437.305
PCSat 02 Dec 13:24:18 13:28:49 27° 303° (WNW) 13:33:23 145.827
Oscar 19 02 Dec 13:26:59 13:32:02 66° 258° (WSW) 13:37:09 437.125/150
VELOX 1 02 Dec 13:45:09 13:47:13 13° 293° (WNW) 13:49:16 145.980
ITAMSAT 1 02 Dec 13:47:54 13:51:33 20° 67° (ENE) 13:55:12 435.822/435.867
GONETS M04 02 Dec 14:05:24 14:12:49 33° 274° (W) 14:20:15
DX 1 02 Dec 14:12:40 14:14:18 12° 294° (WNW) 14:15:57 434.975-435.025
SWISSCUBE 02 Dec 14:19:40 14:23:44 28° 98° (E) 14:27:47 437.505
BEESAT 02 Dec 14:24:10 14:28:14 28° 97° (E) 14:32:17 436.000
UKube-1 02 Dec 14:28:45 14:29:33 10° 294° (WNW) 14:30:22 .
Gurwin Techsat 1B 02 Dec 14:29:56 14:34:38 32° 262° (W) 14:39:23 435.225
SRMSAT 02 Dec 14:32:40 14:35:50 15° 165° (SSE) 14:39:01 437.500
Cosmos 2499 02 Dec 14:36:58 14:41:33 16° 281° (W) 14:46:01 435.465 / 435.565
BEESAT 3 02 Dec 14:39:20 14:41:48 16° 53° (NE) 14:44:16 437.485
ITUPSAT 1 02 Dec 14:48:34 14:53:13 52° 101° (E) 14:57:51 437.325
JUGNU 02 Dec 14:48:41 14:53:27 25° 180° (S) 14:58:11 437.505
TISAT 1 02 Dec 14:48:49 14:52:01 21° 290° (WNW) 14:55:11 437.305
AO-7 02 Dec 14:50:53 14:58:58 61° 69° (ENE) 15:07:06 29.400- 29.500
BEESAT 2 02 Dec 15:00:17 15:01:58 12° 51° (NE) 15:03:38 435.950
AUBIESAT-1 02 Dec 15:00:47 15:05:24 79° 107° (ESE) 15:09:48 437.475
M-CUBED/EXP-1 PRIME 02 Dec 15:09:28 15:14:07 66° 289° (WNW) 15:18:35 437.505
RS-15 02 Dec 15:12:56 15:20:47 18° 32° (NNE) 15:28:30 29.354- 29.394
ITAMSAT 1 02 Dec 15:25:45 15:30:39 41° 261° (W) 15:35:34 435.822/435.867
KKS-1 02 Dec 15:31:00 15:32:44 12° 93° (E) 15:34:27 437.445
SWISSCUBE 02 Dec 15:57:38 16:01:20 23° 291° (WNW) 16:05:00 437.505
O/OREOS (USA 219) 02 Dec 16:01:51 16:05:25 23° 102° (ESE) 16:09:00 437.305
BEESAT 02 Dec 16:02:07 16:05:49 23° 291° (WNW) 16:09:32 436.000
MOZHAYETS 4 02 Dec 16:05:40 16:10:15 89° 114° (ESE) 16:14:47
BEESAT 3 02 Dec 16:15:53 16:19:30 34° 248° (WSW) 16:23:05 437.485
SRMSAT 02 Dec 16:19:49 16:24:23 23° 174° (S) 16:28:58 437.500
ITUPSAT 1 02 Dec 16:28:25 16:30:33 13° 294° (WNW) 16:32:40 437.325
ISS 02 Dec 16:29:16 16:31:51 22° 128° (SE) 16:34:27 145.825
CUTE-I 02 Dec 16:35:31 16:36:05 10° 63° (ENE) 16:36:38 437.470
BEESAT 2 02 Dec 16:36:07 16:40:00 48° 246° (WSW) 16:43:52 435.950
JUGNU 02 Dec 16:37:37 16:41:53 21° 190° (S) 16:46:09 437.505
GOMX 1 02 Dec 16:40:42 16:43:37 17° 68° (ENE) 16:46:39 467.674
BRITE-PL 02 Dec 16:43:14 16:47:15 49° 74° (ENE) 16:51:27 437.365/2234.400
AO-7 02 Dec 16:45:43 16:52:03 24° 263° (W) 16:58:26 29.400- 29.500
Cubesat XI-IV 02 Dec 16:56:53 17:00:26 18° 66° (ENE) 17:03:59 437.490
LilacSat-2 02 Dec 16:59:43 17:01:38 13° 69° (ENE) 17:03:32 437.200
KKS-1 02 Dec 17:05:10 17:09:28 46° 286° (WNW) 17:13:43 437.445
NOAA 15 02 Dec 17:07:21 17:11:36 26° 69° (ENE) 17:15:52 137.62
DOVE 4 02 Dec 17:11:28 17:14:16 16° 67° (ENE) 17:17:10 437.250
HORYU 2 02 Dec 17:12:36 17:17:05 81° 258° (WSW) 17:21:36 437.375
STARS 02 Dec 17:22:08 17:26:31 68° 285° (WNW) 17:30:53 437.465
RS-15 02 Dec 17:24:10 17:36:26 64° 58° (ENE) 17:48:11 29.354- 29.394
CUBESAT XI-V 02 Dec 17:34:31 17:39:10 74° 283° (WNW) 17:43:49 437.345
HO-68 02 Dec 17:38:28 17:39:34 10° 56° (ENE) 17:40:41 435.675
O/OREOS (USA 219) 02 Dec 17:40:50 17:44:39 26° 295° (WNW) 17:48:28 437.305
NOAA 18 02 Dec 17:46:17 17:51:18 37° 70° (ENE) 17:56:21 137.9125
ISS 02 Dec 18:05:28 18:08:14 25° 322° (NW) 18:11:02 145.825
Cosmos 2491 02 Dec 18:07:41 18:15:33 36° 76° (ENE) 18:23:21 435.465 / 435.565
SRMSAT 02 Dec 18:08:20 18:12:59 24° 184° (S) 18:17:39 437.500
CUTE-I 02 Dec 18:09:59 18:15:21 82° 258° (WSW) 18:20:45 437.470
GOMX 1 02 Dec 18:17:27 18:21:22 33° 263° (W) 18:25:31 467.674
AIST 2 02 Dec 18:28:26 18:32:36 55° 60° (ENE) 18:36:43 435.215
JUGNU 02 Dec 18:28:47 18:30:14 11° 198° (SSW) 18:31:41 437.505
YUBILEINY 02 Dec 18:31:51 18:38:27 25° 84° (E) 18:45:02 435.215
LilacSat-2 02 Dec 18:32:08 18:35:35 31° 262° (W) 18:39:04 437.200
Cubesat XI-IV 02 Dec 18:34:55 18:40:04 47° 260° (W) 18:45:15 437.490
CUTE 1.7 + AOD 2 02 Dec 18:36:39 18:39:21 17° 70° (ENE) 18:42:02 437.475
NOAA 15 02 Dec 18:46:38 18:51:12 30° 262° (W) 18:55:47 137.62
DOVE 4 02 Dec 18:47:12 18:51:29 41° 262° (W) 18:56:05 437.250
CANX-2 02 Dec 18:52:40 18:56:23 31° 73° (ENE) 19:00:06 2200.000
CINEMA 3 02 Dec 18:56:15 19:00:56 56° 75° (ENE) 19:05:48 145.822/145.860
HO-68 02 Dec 19:18:56 19:26:02 73° 73° (ENE) 19:33:11 435.675
AAUSAT CUBESAT 2 02 Dec 19:19:04 19:21:44 17° 70° (ENE) 19:24:24 437.432
SEEDS 02 Dec 19:25:59 19:29:56 44° 75° (ENE) 19:33:54 437.485
NOAA 18 02 Dec 19:27:40 19:31:58 23° 264° (W) 19:36:18 137.9125
STRAND 1 02 Dec 19:37:45 19:42:50 67° 101° (ESE) 19:47:53 437.568
RS-15 02 Dec 19:37:52 19:48:02 32° 256° (WSW) 19:57:54 29.354- 29.394
AIST 1 02 Dec 19:38:52 19:41:54 19° 88° (E) 19:44:57
CUBEBUG 2 02 Dec 19:40:38 19:45:03 40° 74° (ENE) 19:49:31 437.445
COMPASS 1 02 Dec 19:43:51 19:47:48 46° 75° (ENE) 19:51:46 437.405
ZACube-1 02 Dec 19:46:39 19:49:38 17° 69° (ENE) 19:52:35 437.345
FUNcube-1 02 Dec 19:56:13 19:59:33 20° 70° (ENE) 20:02:52 145.935
SRMSAT 02 Dec 19:57:59 20:01:34 16° 194° (SSW) 20:05:08 437.500
Cosmos 2491 02 Dec 20:04:23 20:12:15 40° 272° (W) 20:20:07 435.465 / 435.565
Cosmos 2504 02 Dec 20:07:03 20:14:48 53° 90° (E) 20:23:05 435.465 / 435.565
CUTE 1.7 + AOD 2 02 Dec 20:11:10 20:14:53 30° 262° (W) 20:18:38 437.475
YUBILEINY 02 Dec 20:26:04 20:34:32 57° 279° (W) 20:43:06 435.215
CANX-2 02 Dec 20:29:36 20:32:14 16° 266° (W) 20:34:51 2200.000
Oscar 11 02 Dec 20:30:59 20:35:08 48° 75° (ENE) 20:39:18 145.826/435.025
UWE-3 02 Dec 20:31:00 20:35:41 84° 256° (WSW) 20:40:22 435.000/436.395/437.385
PRISM 02 Dec 20:35:01 20:37:10 14° 95° (E) 20:39:18 437.425
PCSat 02 Dec 20:35:56 20:37:11 11° 49° (NE) 20:38:25 145.827
CINEMA 3 02 Dec 20:36:32 20:38:22 12° 269° (W) 20:40:13 145.822/145.860
DELFI C3 02 Dec 20:50:28 20:53:41 24° 72° (ENE) 20:56:52 145.870
AAUSAT CUBESAT 2 02 Dec 20:53:24 20:56:57 28° 263° (W) 21:00:30 437.432
SEEDS 02 Dec 21:04:47 21:05:47 11° 267° (W) 21:06:48 437.485
SO-50 02 Dec 21:06:08 21:10:56 76° 299° (WNW) 21:15:41 436.795
HO-68 02 Dec 21:10:08 21:14:13 16° 267° (W) 21:18:20 435.675
AIST 1 02 Dec 21:15:45 21:19:16 24° 282° (WNW) 21:22:49
CUBEBUG 2 02 Dec 21:18:52 21:21:45 16° 266° (W) 21:24:38 437.445
STRAND 1 02 Dec 21:19:43 21:21:22 12° 296° (WNW) 21:23:02 437.568
ZACube-1 02 Dec 21:21:23 21:25:34 35° 262° (W) 21:29:46 437.345
FUNcube-1 02 Dec 21:31:34 21:35:32 30° 263° (W) 21:39:31 145.935
UNISAT 6 02 Dec 21:34:07 21:36:19 14° 93° (E) 21:38:31 437.425
CUSAT 1 02 Dec 21:35:04 21:38:40 59° 263° (W) 21:43:24 437.405
DANDE 02 Dec 21:44:52 21:47:18 25° 82° (E) 21:50:08 436.750
HUMSAT D 02 Dec 21:46:38 21:50:52 67° 76° (ENE) 21:55:03 437.325/437.525
Cosmos 2504 02 Dec 22:01:51 22:08:30 27° 287° (WNW) 22:15:32 435.465 / 435.565
ESTCUBE 1 02 Dec 22:02:18 22:04:01 12° 67° (ENE) 22:05:45 437.505/2401.250
TIGRISAT 02 Dec 22:03:55 22:07:46 29° 97° (E) 22:11:32 435.000
ANTELSAT 02 Dec 22:04:18 22:08:13 32° 97° (E) 22:12:04 437.575/2403.000
PRISM 02 Dec 22:08:43 22:12:31 35° 287° (WNW) 22:16:18 437.425
Oscar 11 02 Dec 22:10:31 22:11:27 11° 267° (W) 22:12:23 145.826/435.025
PCSat 02 Dec 22:15:51 22:21:18 88° 66° (ENE) 22:26:43 145.827
DELFI C3 02 Dec 22:25:49 22:28:25 17° 265° (W) 22:31:02 145.870
JAS-2 02 Dec 22:43:05 22:45:58 15° 95° (E) 22:48:55 435.910
CUBEBUG 1 02 Dec 22:58:17 23:02:07 31° 72° (ENE) 23:05:59 437.445
VELOX 1 02 Dec 22:59:59 23:03:22 22° 70° (ENE) 23:06:46 145.980
NANOSAT C BR1 02 Dec 23:00:34 23:01:54 11° 93° (E) 23:03:13 145.865
QB50P2 02 Dec 23:01:50 23:04:09 14° 94° (E) 23:06:27 145.880/145.840
POLYITAN 1 02 Dec 23:02:39 23:04:47 14° 94° (E) 23:06:53 437.675
UNISAT 6 02 Dec 23:09:05 23:13:10 38° 287° (WNW) 23:17:09 437.425
QB50P1 02 Dec 23:16:01 23:19:10 20° 96° (E) 23:22:17 145.935-145.965
50 SAT 02 Dec 23:22:52 23:25:56 29° 73° (ENE) 23:29:00 437.505
DUCHIFAT 1 02 Dec 23:23:03 23:26:14 20° 96° (E) 23:29:22 145.980
DX 1 02 Dec 23:25:38 23:29:00 23° 70° (ENE) 23:32:24 434.975-435.025
ESTCUBE 1 02 Dec 23:36:01 23:40:21 49° 260° (W) 23:44:41 437.505/2401.250
POPSAT HIP 1 02 Dec 23:36:32 23:40:26 35° 98° (E) 23:44:18 437.405
UKube-1 02 Dec 23:39:57 23:43:25 24° 71° (ENE) 23:46:53 .
TIGRISAT 02 Dec 23:41:11 23:44:11 18° 291° (WNW) 23:47:08 435.000
ANTELSAT 02 Dec 23:41:48 23:44:38 17° 292° (WNW) 23:47:25 437.575/2403.000
AISAT 02 Dec 23:57:58 00:02:20 67° 259° (WSW) 00:06:45 437.250
SPROUT 02 Dec 23:59:25 00:03:41 73° 76° (ENE) 00:07:59 437.525
JAS-2 03 Dec 00:26:18 00:31:15 47° 286° (WNW) 00:36:25 435.910
NANOSAT C BR1 03 Dec 00:33:46 00:37:46 43° 286° (WNW) 00:41:44 145.865
BUGSAT 1 03 Dec 00:34:13 00:38:21 56° 100° (E) 00:42:24 437.445
CUBEBUG 1 03 Dec 00:35:38 00:38:24 17° 265° (W) 00:41:13 437.445
VELOX 1 03 Dec 00:36:02 00:39:39 25° 263° (W) 00:43:18 145.980
QB50P2 03 Dec 00:36:09 00:40:00 34° 287° (WNW) 00:43:49 145.880/145.840
ISS 03 Dec 00:36:42 00:39:44 32° 40° (NE) 00:42:45 145.825
POLYITAN 1 03 Dec 00:36:46 00:40:39 36° 287° (WNW) 00:44:30 437.675
QB50P1 03 Dec 00:51:22 00:54:51 25° 289° (WNW) 00:58:17 145.935-145.965
50 SAT 03 Dec 00:58:17 00:59:15 11° 266° (W) 01:00:14 437.505
DUCHIFAT 1 03 Dec 00:58:24 01:01:48 24° 289° (WNW) 01:05:11 145.980
DX 1 03 Dec 01:01:33 01:05:02 24° 263° (W) 01:08:33 434.975-435.025
GONETS M04 03 Dec 01:02:34 01:11:05 60° 91° (E) 01:19:35
PHONESAT 2.4 03 Dec 01:07:03 01:09:35 39° 148° (SSE) 01:12:06 2401.200-2431.200
Cosmos 2499 03 Dec 01:09:47 01:18:02 74° 93° (E) 01:26:49 435.465 / 435.565
Gurwin Techsat 1B 03 Dec 01:12:44 01:15:30 14° 93° (E) 01:18:15 435.225
POPSAT HIP 1 03 Dec 01:13:30 01:15:50 15° 292° (WNW) 01:18:11 437.405
UKube-1 03 Dec 01:16:00 01:19:20 22° 264° (W) 01:22:40 .
SWISSCUBE 03 Dec 01:21:59 01:25:22 20° 69° (ENE) 01:28:47 437.505
BEESAT 03 Dec 01:26:26 01:29:49 20° 68° (ENE) 01:33:12 436.000
TISAT 1 03 Dec 01:34:17 01:38:25 54° 260° (W) 01:42:35 437.305
AUBIESAT-1 03 Dec 01:41:46 01:45:26 40° 68° (ENE) 01:49:24 437.475
Oscar 19 03 Dec 01:43:20 01:48:30 66° 102° (ESE) 01:53:39 437.125/150
ITUPSAT 1 03 Dec 01:50:35 01:54:55 35° 72° (ENE) 01:59:15 437.325
M-CUBED/EXP-1 PRIME 03 Dec 01:50:43 01:54:32 68° 72° (ENE) 01:58:42 437.505
ISS 03 Dec 02:13:53 02:16:01 16° 233° (SW) 02:18:09 145.825
O/OREOS (USA 219) 03 Dec 02:16:32 02:19:51 20° 63° (ENE) 02:23:09 437.305
PHONESAT 2.4 03 Dec 02:42:37 02:44:55 25° 342° (NNW) 02:47:12 2401.200-2431.200
AO-85 03 Dec 02:49:09 02:54:14 90° 145° (SE) 02:58:59 145.980
Gurwin Techsat 1B 03 Dec 02:50:31 02:55:41 54° 286° (WNW) 03:00:50 435.225
SWISSCUBE 03 Dec 02:58:34 03:02:53 34° 262° (W) 03:07:12 437.505
AO-7 03 Dec 02:58:55 03:05:39 26° 97° (E) 03:12:19 29.400- 29.500
GONETS M04 03 Dec 03:01:39 03:08:19 24° 288° (WNW) 03:15:00
MOZHAYETS 4 03 Dec 03:02:29 03:06:53 46° 74° (ENE) 03:11:16
BEESAT 03 Dec 03:02:59 03:07:19 34° 262° (W) 03:11:38 436.000
Cosmos 2499 03 Dec 03:06:13 03:11:57 20° 291° (WNW) 03:17:55 435.465 / 435.565
AUBIESAT-1 03 Dec 03:18:32 03:20:04 12° 264° (W) 03:21:38 437.475
Oscar 19 03 Dec 03:25:13 03:27:12 12° 295° (WNW) 03:29:10 437.125/150
ITUPSAT 1 03 Dec 03:29:27 03:32:45 18° 265° (W) 03:36:04 437.325
ITAMSAT 1 03 Dec 03:43:11 03:48:22 78° 284° (WNW) 03:53:30 435.822/435.867
O/OREOS (USA 219) 03 Dec 03:55:23 03:59:12 28° 257° (WSW) 04:03:00 437.305
KKS-1 03 Dec 03:57:47 04:02:14 85° 75° (ENE) 04:06:44 437.445
STARS 03 Dec 04:13:31 04:17:50 55° 74° (ENE) 04:22:10 437.465
PHONESAT 2.4 03 Dec 04:19:20 04:20:44 13° 358° (N) 04:22:08 2401.200-2431.200
CUBESAT XI-V 03 Dec 04:32:42 04:37:13 60° 75° (ENE) 04:41:44 437.345
MOZHAYETS 4 03 Dec 04:42:12 04:44:12 13° 267° (W) 04:46:13
AO-7 03 Dec 04:50:31 04:58:38 57° 292° (WNW) 05:06:45 29.400- 29.500
BRITE-PL 03 Dec 04:51:48 04:56:31 29° 97° (E) 05:01:22 437.365/2234.400
HORYU 2 03 Dec 05:08:50 05:12:36 27° 97° (E) 05:16:21 437.375
NOAA 15 03 Dec 05:28:23 05:31:04 14° 94° (E) 05:33:46 137.62
SO-50 03 Dec 05:42:51 05:46:33 25° 54° (NE) 05:50:13 436.795
PHONESAT 2.4 03 Dec 05:54:33 05:56:37 20° 15° (NNE) 05:58:42 2401.200-2431.200
BEESAT 3 03 Dec 06:00:54 06:04:44 63° 299° (WNW) 06:08:38 437.485
Cosmos 2504 03 Dec 06:08:29 06:12:47 14° 66° (ENE) 06:16:57 435.465 / 435.565
LilacSat-2 03 Dec 06:09:57 06:13:26 35° 98° (E) 06:16:53 437.200
NOAA 18 03 Dec 06:13:43 06:18:05 23° 96° (E) 06:22:24 137.9125
GOMX 1 03 Dec 06:22:40 06:28:09 82° 285° (WNW) 06:33:38 467.674
BEESAT 2 03 Dec 06:22:42 06:26:36 86° 297° (WNW) 06:30:35 435.950
BRITE-PL 03 Dec 06:30:09 06:34:49 30° 288° (WNW) 06:39:39 437.365/2234.400
CUTE-I 03 Dec 06:32:06 06:37:22 61° 101° (ESE) 06:42:36 437.470
YUBILEINY 03 Dec 06:42:00 06:50:42 59° 81° (E) 06:59:20 435.215
HORYU 2 03 Dec 06:45:39 06:48:56 21° 291° (WNW) 06:52:12 437.375
STRAND 1 03 Dec 06:48:38 06:53:40 58° 74° (ENE) 06:58:42 437.568
DOVE 4 03 Dec 06:50:19 06:55:39 81° 101° (E) 07:00:48 437.250
HO-68 03 Dec 06:54:02 06:58:29 17° 94° (E) 07:02:54 435.675
Cubesat XI-IV 03 Dec 06:56:55 07:02:16 77° 284° (WNW) 07:07:33 437.490
CINEMA 3 03 Dec 06:57:06 07:00:35 20° 94° (E) 07:03:57 145.822/145.860
Cosmos 2491 03 Dec 07:02:11 07:10:32 50° 90° (E) 07:18:52 435.465 / 435.565
NOAA 15 03 Dec 07:05:57 07:11:05 54° 287° (WNW) 07:16:13 137.62
SEEDS 03 Dec 07:17:18 07:18:03 10° 93° (E) 07:18:49 437.485
SO-50 03 Dec 07:23:12 07:26:54 26° 249° (WSW) 07:30:34 436.795
AIST 1 03 Dec 07:26:48 07:31:03 47° 81° (E) 07:35:17
PHONESAT 2.4 03 Dec 07:29:25 07:32:04 66° 211° (SSW) 07:34:43 2401.200-2431.200
COMPASS 1 03 Dec 07:33:52 07:34:51 11° 93° (E) 07:35:51 437.405
CUBEBUG 2 03 Dec 07:39:00 07:40:21 11° 92° (E) 07:41:41 437.445
RS-15 03 Dec 07:39:55 07:51:16 65° 111° (ESE) 08:03:13 29.354- 29.394
LilacSat-2 03 Dec 07:46:09 07:47:21 11° 291° (WNW) 07:48:31 437.200
NOAA 18 03 Dec 07:53:43 07:58:44 36° 290° (WNW) 08:03:43 137.9125
Cosmos 2504 03 Dec 07:58:32 08:07:23 88° 84° (E) 08:15:40 435.465 / 435.565
CUTE 1.7 + AOD 2 03 Dec 08:00:10 08:04:21 63° 100° (E) 08:08:31 437.475
CUTE-I 03 Dec 08:14:13 08:16:49 14° 295° (WNW) 08:19:26 437.470
CANX-2 03 Dec 08:17:30 08:21:40 65° 283° (WNW) 08:25:50 2200.000
AIST 2 03 Dec 08:21:19 08:25:03 36° 113° (ESE) 08:28:51 435.215
Oscar 11 03 Dec 08:24:47 08:26:43 13° 93° (E) 08:28:39 145.826/435.025
UWE-3 03 Dec 08:26:21 08:30:01 27° 96° (E) 08:33:34 435.000/436.395/437.385
STRAND 1 03 Dec 08:30:58 08:33:07 12° 267° (W) 08:35:15 437.568
DOVE 4 03 Dec 08:31:47 08:32:31 10° 296° (WNW) 08:33:14 437.250
CINEMA 3 03 Dec 08:33:28 08:37:43 32° 288° (WNW) 08:41:47 145.822/145.860
HO-68 03 Dec 08:39:28 08:46:37 69° 288° (WNW) 08:53:45 435.675
AAUSAT CUBESAT 2 03 Dec 08:39:35 08:43:40 60° 101° (E) 08:47:45 437.432
YUBILEINY 03 Dec 08:40:10 08:46:46 24° 277° (W) 08:53:24 435.215
SEEDS 03 Dec 08:49:55 08:53:55 45° 285° (WNW) 08:57:54 437.485
PRISM 03 Dec 08:52:36 08:56:38 80° 78° (ENE) 09:00:43 437.425
TIGRISAT 03 Dec 08:58:23 09:01:21 17° 68° (ENE) 09:04:18 435.000
ANTELSAT 03 Dec 08:58:46 09:01:56 18° 69° (ENE) 09:05:04 437.575/2403.000
Cosmos 2491 03 Dec 09:00:10 09:07:32 29° 286° (WNW) 09:14:56 435.465 / 435.565
COMPASS 1 03 Dec 09:06:37 09:10:33 43° 285° (WNW) 09:14:30 437.405
AIST 1 03 Dec 09:07:20 09:08:07 10° 275° (W) 09:08:53
CUBEBUG 2 03 Dec 09:12:59 09:17:11 45° 286° (WNW) 09:21:15 437.445
ZACube-1 03 Dec 09:14:22 09:18:34 63° 101° (E) 09:22:40 437.345
FUNcube-1 03 Dec 09:23:57 09:28:10 77° 101° (ESE) 09:32:18 145.935
HUMSAT D 03 Dec 09:36:15 09:38:33 15° 94° (E) 09:40:50 437.325/437.525
RS-15 03 Dec 09:54:02 10:04:28 35° 313° (NW) 10:15:22 29.354- 29.394
Cosmos 2504 03 Dec 09:55:16 09:59:23 14° 282° (WNW) 10:03:26 435.465 / 435.565
Oscar 11 03 Dec 09:58:57 10:02:57 39° 286° (WNW) 10:06:58 145.826/435.025
AIST 2 03 Dec 10:01:05 10:03:38 16° 308° (NW) 10:06:13 435.215
UNISAT 6 03 Dec 10:01:53 10:06:35 84° 257° (WSW) 10:11:17 437.425
UWE-3 03 Dec 10:03:13 10:06:14 19° 290° (WNW) 10:09:12 435.000/436.395/437.385
DELFI C3 03 Dec 10:06:11 10:10:10 83° 102° (ESE) 10:14:09 145.870
POPSAT HIP 1 03 Dec 10:25:24 10:27:51 15° 69° (ENE) 10:30:20 437.405
JAS-2 03 Dec 10:32:24 10:38:44 41° 72° (ENE) 10:44:23 435.910
TIGRISAT 03 Dec 10:33:17 10:37:40 39° 261° (W) 10:42:04 435.000
ANTELSAT 03 Dec 10:33:59 10:38:17 36° 262° (W) 10:42:37 437.575/2403.000
CUSAT 1 03 Dec 10:34:22 10:37:41 27° 278° (W) 10:40:26 437.405
DANDE 03 Dec 10:46:45 10:52:28 76° 97° (E) 10:56:41 436.750
JUGNU 03 Dec 10:59:42 11:01:30 11° 162° (SSE) 11:03:16 437.505
Cosmos 2499 03 Dec 11:09:21 11:15:11 20° 69° (ENE) 11:20:44 435.465 / 435.565
HUMSAT D 03 Dec 11:10:35 11:14:11 31° 287° (WNW) 11:17:45 437.325/437.525
PCSat 03 Dec 11:10:37 11:14:46 23° 106° (ESE) 11:18:55 145.827
BUGSAT 1 03 Dec 11:19:39 11:22:46 21° 70° (ENE) 11:25:56 437.445
GONETS M04 03 Dec 11:20:06 11:26:33 22° 72° (ENE) 11:32:58
NANOSAT C BR1 03 Dec 11:20:18 11:24:32 69° 75° (ENE) 11:28:47 145.865
QB50P2 03 Dec 11:23:01 11:27:18 88° 78° (ENE) 11:31:37 145.880/145.840
POLYITAN 1 03 Dec 11:23:38 11:27:55 84° 78° (ENE) 11:32:14 437.675
AO-85 03 Dec 11:26:48 11:29:23 17° 53° (NE) 11:31:55 145.980
ESTCUBE 1 03 Dec 11:33:06 11:37:28 48° 100° (E) 11:41:50 437.505/2401.250
QB50P1 03 Dec 11:37:47 11:42:01 65° 259° (W) 11:46:17 145.935-145.965
DUCHIFAT 1 03 Dec 11:44:11 11:48:23 64° 259° (W) 11:52:38 145.980
SPROUT 03 Dec 11:51:08 11:54:03 18° 95° (E) 11:56:56 437.525
AISAT 03 Dec 11:53:05 11:57:07 33° 98° (E) 12:01:07 437.250
POPSAT HIP 1 03 Dec 11:59:22 12:03:17 35° 262° (W) 12:07:14 437.405
